Погода Байрамалы

Погода Байрамалы : погода сейчас, прогноз погоды и архив. Всё, что Вы хотите узнать о погоде Байрамалы!

Поиск расширенной информации на нашем сайте:

Другие новости

Новости СМИ2

Главная страница сайта

Новости сайта

03.07.2017

Напоминаем, что на нашем специализированном сайте Метеоцентр.Азия вы можете получить высокодетализированные автоматические прогнозы погоды по пунктам России, СНГ и мира в авиационном формате (включающие направление и скорость ветра, видимость, явления погоды, количество и форму облачности, нижнюю и верхнюю границу облачности).


Погода Байрамалы - сегодня

Время (UTC), дата Ветер
(°,м/с) 
Видим.   Явления Облачность Т
(°С)
Тd
(°С)
f(%) Тe
(°С)
Pmin
(гПа)
dP
(гПа)
Po
(мм)
O2
(г/м3)
Тmin Tmax R s Состояние
почвы
21 23.05.18 050 (СВ) 4000 м    ясно 
+23.5 +6.1 33 +24  1015.9  741  274           
00 24.05.18 040 (СВ) 4000 м    ясно 
+20.5 +6.4 40 +21  1016.1  741  277           
03 24.05.18 060 (СВ) 4000 м    ясно 
+21.9 +3 29 +22  1016.2  0.1  751  280           
06 24.05.18 340 (С) 4000 м    ясно 
+29.4 +7.7 26 +29  1015.4  741  268    +20.3       
09 24.05.18 020 (С) 4000 м    ясно 
+33.5 +6.2 18 +34  1013.7  -1.3  740  265           
12 24.05.18 230 (ЮЗ) 4000 м    ясно 
+33.8 +5.3 17 +34  1011.7  -1.9  739  264           
15 24.05.18 020 (С) 4000 м    ясно 
+30.8 +8 24 +31  1011.3  -0.7  739  266    +34.6       
18 24.05.18 320 (СЗ) 4000 м    ясно 
+25 +5.9 29 +25  1012.1  0.3  739  272    +34.6       
21 24.05.18 020 (С) 4000 м    ясно 
+22.1 +0 23 +22  1011.8  -0.6  738  275           
00 25.05.18 тихо ()   4000 м    ясно 
+18.2 +3.2 37 +18  1011.6  -0.6  738  278           
03 25.05.18 тихо ()   4000 м    ясно 
+20.5 +2.9 31 +21  1011.9  0.5  751  281           
06 25.05.18 тихо ()   4000 м    ясно 
+27.4 +2.3 20 +27  1011.3  0.1  738  270  +16.8         
09 25.05.18 тихо ()   4000 м    ясно 
+32 +4.8 18 +32  1010.1  -0.8  738  265           
12 25.05.18 тихо ()   4000 м    ясно 
+33.1 +5.8 18 +33  1008.7  -1.2  737  264           
15 25.05.18 тихо ()   4000 м    ясно 
+28.2 +8.5 29 +28  1009  -0.1  737  268    +33.7       
18 25.05.18 тихо ()   4000 м    ясно 
+21 +9.9 49 +22  1009.8  0.1  737  274    +33.7       
21 25.05.18 тихо ()   4000 м    ясно 
+17.4 +9.4 59 +18  1009.5  -0.6  736  277           
00 26.05.18 тихо ()   4000 м    ясно 
+15.8 +6.8 55 +16  1009.4  -0.3  736  279           
03 26.05.18 160 (Ю) 4000 м    ясно 
+23 +5.9 33 +23  1009.1  0.4  736  273           
06 26.05.18 170 (Ю) 4000 м    ясно 
+31.4 +5.9 20 +31  1008.3  -0.1  736  265  +15.2         
09 26.05.18 тихо ()   4000 м    ясно 
+35.9 +2.7 13 +36  1006.8  -1.1  736  262           
12 26.05.18 290 (З) 4000 м    ясно 
+36.9 +4.3 13 +37  1005.1  -1.5  734  260           
15 26.05.18 тихо ()   4000 м    ясно 
+31.5 +8 23 +32  1005.3  -0.1  734  264    +37.4       
18 26.05.18 тихо ()   4000 м    ясно 
+23.5 +10 42 +25  1006.2  0.2  734  271    +37.4       
21 26.05.18 тихо ()   4000 м    ясно 
+20.9 +10.3 51 +23  1006.8  0.3  735  273           
Время (UTC), дата Ветер
(°,м/с) 
Видим.   Явления Облачность Т
(°С)
Тd
(°С)
f(%) Тe
(°С)
Pmin
(гПа)
dP
(гПа)
Po
(мм)
O2
(г/м3)
Тmin Tmax R s Состояние
почвы

Для получения пояснительной информации подведите курсор к названию столбца.

ПОГОДА Байрамалы - архив

Всё, что Вы хотите узнать о погоде Байрамалы - удобно и подробно!

Выберите нужную дату (начиная с 1 января 2015* года) и нажмите кнопку "Найти".
Будут отображены архивные сводки погоды по пункту Байрамалы, начиная с указанной даты.


Отображать данные в формате CSV (для использования в таблицах Excel)


Внимание! Наш архив погоды предназначен исключительно для личного некоммерческого использования в познавательных целях. Если Вам необходимы официальные справки о состоянии погоды (для производственных, юридических, коммерческих и т.п. целей), обращайтесь в органы Росгидромета.

*Примечание: данная дата относится к архиву по метеостанциям СССР (Россия, СНГ, Балтия).
Архив по метеостанциям Зарубежной Европы и Азии (кроме Китая) хранится 10 дней, по другим регионам земного шара (Китай, Африка, Америка, Австралия, Океания) - 1 день.

Байрамалы - район местоположения метеостанции


Название, широта, долгота, высота метеостанции:
Байрамалы 37.6°ш. 62.2°д. 240 м над ур. моря [Туркменистан]

Дополнительная информация

В oтличие oт бoльшинства пoгoдных сайтoв мы публикуем пoдрoбную метеoинфoрмацию в детальнoм прoфессиoнальнoм фoрмате.

Характеристики температуры и влажнoсти вoздуха измеряются на высoте 2 м в тени вдали oт зданий и деревьев.
Скoрoсть ветра измеряется на высoте 10 м (на урoвне рoста челoвека скoрoсть ветра ниже в 1.5-2 раза). Если метеoстанция нахoдится в гoрoде или в лесу, тo скoрoсть ветра занижена на 2-4 м/с пo сравнению с oткрытым местoм. Скoрoсть ветра над акватoриями крупных рек и oзёр, а также на вершинах хoлмoв на 2-5 м/с выше, чем в oбычных услoвиях.
Атмoсфернoе давление в разных тoчках местнoсти мoжет значительнo oтличаться oт давления на метеoстанции, в зависимoсти oт услoвий рельефа (при пoдъёме на 10 м давление пoнижается примернo на 1 мм рт.ст.).